Chania/Souda, Greece

6:43 AM EET on February 22, 2017 (GMT +0200)
Souda

Weather History for LGSA - December, 2012

Change the Weather History Date:

Wednesday, December 12, 2012

  Actual Average Record
Temperature  
Mean Temperature 55 °F -  
Max Temperature 59 °F 60 °F 66 °F (2011)
Min Temperature 51 °F 48 °F 35 °F (2010)
Degree Days  
Heating Degree Days 10    
Growing Degree Days 5 (Base 50)    
Moisture  
Dew Point 48 °F    
Average Humidity 78    
Maximum Humidity 94    
Minimum Humidity 55    
Precipitation  
Precipitation 0.00 in 0.15 in - ()
Sea Level Pressure  
Sea Level Pressure 29.95 in    
Wind  
Wind Speed 8 mph ()    
Max Wind Speed 16 mph    
Max Gust Speed -    
Visibility 6.0 miles    
Events Rain    
Averages and records for this station are not official NWS values.
T = Trace of Precipitation, MM = Missing Value Source: Averaged Metar Reports

Daily Weather History Graph

Daily Weather History Graph

Search for Another Location

Airport or City:

Trip Planner

Search our weather history database for the weather conditions in past years. The results will help you decide how hot, cold, wet, or windy it might be!

Date:

Astronomy

Dec. 12, 2012 Rise Set
Actual Time 7:23 AM EET 5:11 PM EET
Civil Twilight 6:55 AM EET 5:39 PM EET
Nautical Twilight 6:23 AM EET 6:11 PM EET
Astronomical Twilight 5:52 AM EET 6:42 PM EET
Moon 6:07 AM EET (12/12) 4:28 PM EET (12/12)
Length of Visible Light 10h 44m
Length of Day
9h 47m
Waning Crescent, 1% of the Moon is Illuminated
Dec 12
Waning Crescent
Dec 13
New
Dec 20
First Quarter
Dec 28
Full
Jan 5
Last Quarter

Hourly Weather History & Observations

Time (EET) Temp. Dew Point Humidity Pressure Visibility Wind Dir Wind Speed Gust Speed Precip Events Conditions
12:20 AM 57.2 °F 51.8 °F 82% 29.86 in 6.2 mi West 9.2 mph - N/A   Mostly Cloudy
12:50 AM 57.2 °F 51.8 °F 82% 29.89 in 6.2 mi West 13.8 mph - N/A   Mostly Cloudy
1:20 AM 57.2 °F 51.8 °F 82% 29.89 in 5.6 mi West 16.1 mph - N/A Rain Light Rain
1:50 AM 55.4 °F 51.8 °F 88% 29.89 in 4.3 mi West 13.8 mph - N/A Rain Light Rain
2:00 AM 55 °F 52 °F 86% 29.90 in 4 mi West 13.8 mph - - Rain Light Rain
2:20 AM 55.4 °F 51.8 °F 88% 29.89 in 4.3 mi WSW 9.2 mph - N/A Rain Light Rain
2:50 AM 55.4 °F 51.8 °F 88% 29.89 in 4.3 mi WSW 11.5 mph - N/A Rain Light Rain
3:20 AM 55.4 °F 51.8 °F 88% 29.89 in 4.3 mi WSW 9.2 mph - N/A Rain Light Rain
3:50 AM 55.4 °F 51.8 °F 88% 29.89 in 5.0 mi WSW 9.2 mph - N/A Rain Light Rain
4:20 AM 55.4 °F 51.8 °F 88% 29.89 in 6.2 mi WSW 6.9 mph - N/A   Mostly Cloudy
5:20 AM 53.6 °F 51.8 °F 94% 29.89 in 6.2 mi WSW 6.9 mph - N/A   Overcast
5:50 AM 53.6 °F 50.0 °F 88% 29.89 in 6.2 mi WSW 6.9 mph - N/A   Overcast
6:20 AM 53.6 °F 50.0 °F 88% 29.89 in 6.2 mi WSW 6.9 mph - N/A   Overcast
6:50 AM 53.6 °F 51.8 °F 94% 29.89 in 6.2 mi WSW 6.9 mph - N/A   Overcast
7:20 AM 53.6 °F 51.8 °F 94% 29.89 in 6.2 mi West 4.6 mph - N/A   Mostly Cloudy
7:50 AM 53.6 °F 50.0 °F 88% 29.92 in 6.2 mi WNW 4.6 mph - N/A   Mostly Cloudy
8:00 AM 54 °F 51 °F 84% 29.93 in 6 mi WNW 4.6 mph - -   Partly Cloudy
8:20 AM 53.6 °F 50.0 °F 88% 29.92 in 6.2 mi NW 4.6 mph - N/A   Mostly Cloudy
8:50 AM 53.6 °F 50.0 °F 88% 29.92 in 6.2 mi Calm Calm - N/A   Mostly Cloudy
9:20 AM 53.6 °F 50.0 °F 88% 29.92 in 6.2 mi Calm Calm - N/A   Mostly Cloudy
9:50 AM 55.4 °F 50.0 °F 82% 29.95 in 6.2 mi WNW 4.6 mph - N/A   Mostly Cloudy
10:20 AM 55.4 °F 50.0 °F 82% 29.95 in 6.2 mi WSW 4.6 mph - N/A Rain Light Rain
10:50 AM 55.4 °F 50.0 °F 82% 29.98 in 6.2 mi WNW 6.9 mph - N/A   Mostly Cloudy
11:20 AM 55.4 °F 50.0 °F 82% 29.98 in 6.2 mi WNW 6.9 mph - N/A   Mostly Cloudy
11:50 AM 55.4 °F 50.0 °F 82% 29.95 in 6.2 mi WNW 9.2 mph - N/A   Mostly Cloudy
12:20 PM 55.4 °F 50.0 °F 82% 29.95 in 6.2 mi WNW 9.2 mph - N/A   Mostly Cloudy
12:50 PM 57.2 °F 48.2 °F 72% 29.95 in 6.2 mi WNW 6.9 mph - N/A   Mostly Cloudy
1:20 PM 57.2 °F 48.2 °F 72% 29.95 in 6.2 mi WNW 4.6 mph - N/A   Mostly Cloudy
1:50 PM 59.0 °F 46.4 °F 63% 29.92 in 6.2 mi WNW 5.8 mph - N/A   Mostly Cloudy
2:00 PM 59 °F 47 °F 55% 29.94 in 6 mi WNW 5.8 mph - -   Partly Cloudy
2:20 PM 59.0 °F 46.4 °F 63% 29.92 in 6.2 mi WNW 6.9 mph - N/A   Mostly Cloudy
2:50 PM 59.0 °F 48.2 °F 67% 29.95 in 6.2 mi NNW 5.8 mph - N/A   Mostly Cloudy
3:20 PM 59.0 °F 48.2 °F 67% 29.95 in 6.2 mi WNW 5.8 mph - N/A   Mostly Cloudy
3:50 PM 57.2 °F 46.4 °F 67% 29.95 in 6.2 mi WNW 5.8 mph - N/A   Mostly Cloudy
4:20 PM 57.2 °F 46.4 °F 67% 29.95 in 6.2 mi WNW 5.8 mph - N/A   Scattered Clouds
4:50 PM 55.4 °F 48.2 °F 77% 29.98 in 6.2 mi West 8.1 mph - N/A   Scattered Clouds
5:20 PM 55.4 °F 48.2 °F 77% 29.98 in 6.2 mi West 9.2 mph - N/A   Scattered Clouds
5:50 PM 53.6 °F 46.4 °F 77% 29.98 in 6.2 mi West 6.9 mph - N/A   Scattered Clouds
6:20 PM 53.6 °F 46.4 °F 77% 29.98 in 6.2 mi West 5.8 mph - N/A   Scattered Clouds
6:50 PM 51.8 °F 44.6 °F 76% 30.01 in 6.2 mi West 8.1 mph - N/A   Scattered Clouds
7:20 PM 53.6 °F 46.4 °F 77% 30.01 in 6.2 mi West 5.8 mph - N/A   Scattered Clouds
7:50 PM 53.6 °F 44.6 °F 72% 30.01 in 6.2 mi WSW 9.2 mph - N/A   Scattered Clouds
8:00 PM 54 °F 44 °F 59% 30.04 in 6 mi WSW 9.2 mph - -   Partly Cloudy
8:20 PM 53.6 °F 44.6 °F 72% 30.01 in 6.2 mi WSW 10.4 mph - N/A   Scattered Clouds
8:50 PM 53.6 °F 42.8 °F 67% 30.01 in 6.2 mi WSW 9.2 mph - N/A   Partly Cloudy
9:20 PM 53.6 °F 42.8 °F 67% 30.01 in 6.2 mi WSW 9.2 mph - N/A   Partly Cloudy
9:50 PM 53.6 °F 42.8 °F 67% 30.04 in 6.2 mi WSW 6.9 mph - N/A   Partly Cloudy
10:20 PM 53.6 °F 42.8 °F 67% 30.04 in 6.2 mi WSW 6.9 mph - N/A   Partly Cloudy
10:50 PM 51.8 °F 41.0 °F 67% 30.04 in 6.2 mi WSW 6.9 mph - N/A   Partly Cloudy
11:50 PM 51.8 °F 41.0 °F 67% 30.04 in 6.2 mi WSW 9.2 mph - N/A   Partly Cloudy